Hulianwang W. Digui 10-04

operational
NORAD ID: 65308 Int'l Des: 2025-187 Owner: ZXW Country: CN Constellation: xingwang
LEOCIRCULAR

About Hulianwang W. Digui 10-04

Description loading...

Live Position

Loading 3D Globe...

Upcoming Passes

Altitude History

Altitude vs Time

uPlot chart will show altitude changes over time

Two-Line Element Set

1 65308U 25187D 25314.93311929 -.00000045 00000-0 15726-3 0 9991
2 65308 50.0076 268.9645 0001449 35.0857 325.0114 13.36689962 10660
Epoch: Nov 10, 2025 • Age: 35 hours

Current Status

Altitude 1122.3 km
Velocity 7.29 km/s
Sub-Earth Point 6.23°N, 113.47°W
Launch Date Aug 25, 2025
Age 0.2 years
Type other

Technical Details

Classification Payload
Mass 800.00 kg
Dry Mass 800.00 kg
Total Mass 800.00 kg
Length 3.00 m
Diameter 1.00 m
Span 10.00 m
Shape Box + 2 Pan
Manufacturer SECM
Bus Type Guowang S
Phase Status In Orbit
Owner/State ZXW/CN

Large Constellations

Loading constellations...